Hourly Data Report for October 13, 2020

SHEARWATER RCS
NOVA SCOTIA
Current Station Operator: ECCC - MSC

44°37'47.000" N
63°30'48.000" W
24.00 m
8205092
71264
AAW

Download Data

Hourly Data (October 2020)
Hourly Data Report for October 13, 2020
TIME Temp Definition
°C
Dew Point Definition
°C
Rel Hum Definition
%
Wind Dir Definition
10's deg

Wind Spd Definition
km/h
Visibility Definition
km
Stn Press Definition
kPa
Hmdx Definition


Wind Chill Definition


Weather Definition


00:00 4.7 0.5 74 3 8   102.48     LegendNANA
01:00 5.0 1.2 76 3 9   102.44     LegendNANA
02:00 5.0 1.2 76 4 10   102.42     LegendNANA
03:00 4.7 1.3 79 5 13   102.40     LegendNANA
04:00 4.9 1.8 80 5 12   102.37     LegendNANA
05:00 5.5 2.7 82 4 10   102.39     LegendNANA
06:00 5.8 3.2 83 5 14   102.36     LegendNANA
07:00 6.2 3.6 83 5 14   102.32     LegendNANA
08:00 7.7 4.2 78 6 12   102.34     LegendNANA
09:00 9.9 4.9 71 8 12   102.30     LegendNANA
10:00 10.9 6.2 72 9 15   102.27     LegendNANA
11:00 12.0 6.8 70 10 17   102.24     LegendNANA
12:00 12.4 7.0 70 10 21   102.18     LegendNANA
13:00 12.1 7.5 73 9 24   102.12     LegendNANA
14:00 12.3 8.1 75 9 17   102.03     LegendNANA
15:00 12.1 8.4 78 8 17   101.97     LegendNANA
16:00 11.9 8.8 81 8 18   101.91     LegendNANA
17:00 11.6 9.2 85 8 18   101.85     LegendNANA
18:00 11.4 9.5 88 7 20   101.77     LegendNANA
19:00 11.5 9.9 90 8 17   101.71     LegendNANA
20:00 11.7 10.3 91 8 17   101.64     LegendNANA
21:00 11.8 10.7 93 8 20   101.54     LegendNANA
22:00 12.6 11.3 92 9 16   101.48     LegendNANA
23:00 12.7 11.4 92 8 21   101.39     LegendNANA

Notes on Data Quality.

Legend

  • E = Estimated
  • M = Missing
  • NA = Not Available*
  • [empty] = Indicates an unobserved value
Date modified: